When you browse on this site, cookies collect data to enhance your experience and personalize the content and advertising you see.
Visit our Privacy Policy to learn more. By continuing to use the site, you agree to this use of cookies and data.
  • In United Kingdom
  • List of Countries
  • For 7 days
  • Water Temperature
  • Satellite Maps
  • Weather Map
  • Weather Widgets
  • user-avatar
    Login

    Hourly Weather Nicastro

    Today, 24 March, Sunday

    Time Temperature Precipitation Wind Pressure Humidity
    00:00 +10°C° 0 mm 1 mps 731 mmHg 69%
    01:00 +10°C° 0 mm 1 mps 731 mmHg 69%
    02:00 +10°C° 0 mm 1 mps 731 mmHg 68%
    03:00 +10°C° 0 mm 1 mps 731 mmHg 67%
    04:00 +10°C° 0 mm 1 mps 731 mmHg 66%
    05:00 +10°C° 0 mm 1 mps 731 mmHg 64%
    06:00 +11°C° 0 mm 1 mps 731 mmHg 63%
    07:00 +11°C° 0 mm 1 mps 731 mmHg 61%
    08:00 +14°C° 0 mm 2 mps 732 mmHg 56%
    09:00 +16°C° 0 mm 2 mps 732 mmHg 51%
    10:00 +18°C° 0 mm 2 mps 732 mmHg 46%
    11:00 +18°C° 0 mm 2 mps 732 mmHg 46%
    12:00 +19°C° 0 mm 3 mps 732 mmHg 46%
    13:00 +19°C° 0 mm 3 mps 732 mmHg 47%
    14:00 +19°C° 0 mm 3 mps 732 mmHg 50%
    15:00 +18°C° 0 mm 3 mps 732 mmHg 53%
    16:00 +17°C° 0 mm 2 mps 732 mmHg 56%
    17:00 +15°C° 0 mm 2 mps 731 mmHg 66%
    18:00 +13°C° 0 mm 2 mps 731 mmHg 76%
    19:00 +11°C° 0 mm 1 mps 731 mmHg 86%
    20:00 +11°C° 0 mm 1 mps 731 mmHg 84%
    21:00 +11°C° 0 mm 1 mps 731 mmHg 82%
    22:00 +9°C° 0 mm 2 mps 731 mmHg 81%
    23:00 +9°C° 0 mm 2 mps 731 mmHg 81%

    Tomorrow, 25 March, Monday

    Time Temperature Precipitation Wind Pressure Humidity
    00:00 +10°C° 0 mm 1 mps 731 mmHg 81%
    01:00 +10°C° 0 mm 1 mps 731 mmHg 81%
    02:00 +9°C° 0 mm 2 mps 730 mmHg 82%
    03:00 +8°C° 0 mm 2 mps 730 mmHg 83%
    04:00 +8°C° 0 mm 2 mps 730 mmHg 84%
    05:00 +9°C° 0 mm 2 mps 730 mmHg 83%
    06:00 +9°C° 0 mm 2 mps 730 mmHg 81%
    07:00 +10°C° 0 mm 2 mps 730 mmHg 80%
    08:00 +13°C° 0 mm 2 mps 730 mmHg 72%
    09:00 +15°C° 0 mm 2 mps 729 mmHg 64%
    10:00 +16°C° 0 mm 3 mps 729 mmHg 55%
    11:00 +17°C° 0 mm 3 mps 729 mmHg 54%
    12:00 +17°C° 0 mm 3 mps 729 mmHg 52%
    13:00 +18°C° 0 mm 4 mps 728 mmHg 51%
    14:00 +17°C° 0 mm 4 mps 728 mmHg 53%
    15:00 +15°C° 0 mm 4 mps 727 mmHg 56%
    16:00 +15°C° 0 mm 4 mps 727 mmHg 58%
    17:00 +13°C° 0 mm 3 mps 726 mmHg 68%
    18:00 +12°C° 0 mm 2 mps 726 mmHg 77%
    19:00 +9°C° 0 mm 2 mps 726 mmHg 86%
    20:00 +9°C° 0 mm 2 mps 726 mmHg 85%
    21:00 +9°C° 0 mm 2 mps 726 mmHg 84%
    22:00 +8°C° 0 mm 2 mps 726 mmHg 83%
    23:00 +8°C° 0 mm 2 mps 725 mmHg 84%

    Day after tomorrow, 26 March, Tuesday

    Time Temperature Precipitation Wind Pressure Humidity
    00:00 +8°C° 0 mm 2 mps 725 mmHg 84%
    01:00 +8°C° 0 mm 2 mps 725 mmHg 84%
    02:00 +8°C° 0 mm 2 mps 724 mmHg 85%
    03:00 +7°C° 0 mm 2 mps 724 mmHg 85%
    04:00 +7°C° 0 mm 2 mps 724 mmHg 85%
    05:00 +8°C° 0 mm 2 mps 724 mmHg 82%
    06:00 +9°C° 0 mm 2 mps 724 mmHg 78%
    07:00 +9°C° 0 mm 2 mps 725 mmHg 75%
    08:00 +12°C° 0 mm 2 mps 725 mmHg 66%
    09:00 +14°C° 0 mm 2 mps 725 mmHg 58%
    10:00 +16°C° 0 mm 2 mps 726 mmHg 49%
    11:00 +17°C° 0 mm 3 mps 726 mmHg 51%
    12:00 +17°C° 0 mm 3 mps 726 mmHg 52%
    13:00 +17°C° 0 mm 3 mps 726 mmHg 53%
    14:00 +16°C° 0.1 mm 3 mps 726 mmHg 56%
    15:00 +16°C° 0.1 mm 3 mps 726 mmHg 59%
    16:00 +14°C° 0.1 mm 3 mps 726 mmHg 62%
    17:00 +13°C° 0 mm 2 mps 727 mmHg 71%
    18:00 +12°C° 0 mm 2 mps 727 mmHg 80%
    19:00 +10°C° 0 mm 1 mps 727 mmHg 89%
    20:00 +10°C° 0 mm 1 mps 728 mmHg 89%
    21:00 +10°C° 0 mm 1 mps 728 mmHg 90%
    22:00 +9°C° 0 mm 1 mps 729 mmHg 91%
    23:00 +9°C° 0 mm 1 mps 729 mmHg 89%

    27 March, Wednesday

    Time Temperature Precipitation Wind Pressure Humidity
    00:00 +9°C° 0 mm 1 mps 729 mmHg 88%
    01:00 +8°C° 0 mm 2 mps 728 mmHg 87%
    02:00 +9°C° 0.1 mm 1 mps 728 mmHg 86%
    03:00 +9°C° 0.1 mm 1 mps 728 mmHg 85%
    04:00 +9°C° 0.1 mm 1 mps 728 mmHg 85%
    05:00 +9°C° 0.8 mm 1 mps 728 mmHg 86%
    06:00 +9°C° 0.8 mm 2 mps 729 mmHg 88%
    07:00 +9°C° 0.8 mm 2 mps 729 mmHg 89%
    08:00 +10°C° 0.3 mm 2 mps 729 mmHg 84%
    09:00 +12°C° 0.3 mm 2 mps 729 mmHg 79%
    10:00 +13°C° 0.3 mm 2 mps 729 mmHg 74%
    11:00 +14°C° 0.4 mm 2 mps 729 mmHg 71%
    12:00 +14°C° 0.4 mm 2 mps 729 mmHg 68%
    13:00 +15°C° 0.4 mm 2 mps 729 mmHg 66%
    14:00 +15°C° 0.4 mm 2 mps 729 mmHg 66%
    15:00 +14°C° 0.4 mm 2 mps 729 mmHg 66%
    16:00 +14°C° 0.4 mm 1 mps 728 mmHg 66%
    17:00 +13°C° 0.2 mm 1 mps 728 mmHg 73%
    18:00 +11°C° 0.2 mm 1 mps 728 mmHg 80%
    19:00 +10°C° 0.2 mm 1 mps 728 mmHg 87%
    20:00 +10°C° 0.3 mm 1 mps 729 mmHg 88%
    21:00 +8°C° 0.3 mm 2 mps 729 mmHg 89%
    22:00 +8°C° 0.3 mm 2 mps 729 mmHg 90%
    23:00 +8°C° 0.2 mm 2 mps 729 mmHg 90%

    28 March, Thursday

    Time Temperature Precipitation Wind Pressure Humidity
    00:00 +8°C° 0.2 mm 2 mps 729 mmHg 90%
    01:00 +8°C° 0.2 mm 2 mps 729 mmHg 90%
    02:00 +9°C° 0.2 mm 1 mps 729 mmHg 89%
    03:00 +9°C° 0.2 mm 1 mps 729 mmHg 88%
    04:00 +9°C° 0.2 mm 1 mps 729 mmHg 87%
    05:00 +9°C° 0.2 mm 1 mps 729 mmHg 85%
    06:00 +9°C° 0.2 mm 1 mps 729 mmHg 83%
    07:00 +10°C° 0.2 mm 1 mps 729 mmHg 81%
    08:00 +11°C° 0.7 mm 1 mps 729 mmHg 80%
    09:00 +11°C° 0.7 mm 1 mps 730 mmHg 78%
    10:00 +12°C° 0.7 mm 2 mps 730 mmHg 76%
    11:00 +12°C° 0.5 mm 2 mps 730 mmHg 74%
    12:00 +11°C° 0.5 mm 3 mps 730 mmHg 73%
    13:00 +12°C° 0.5 mm 3 mps 730 mmHg 71%
    14:00 +12°C° 0.3 mm 3 mps 730 mmHg 70%
    15:00 +12°C° 0.3 mm 3 mps 730 mmHg 70%
    16:00 +12°C° 0.3 mm 3 mps 730 mmHg 69%
    17:00 +11°C° 0.6 mm 4 mps 730 mmHg 75%
    18:00 +10°C° 0.6 mm 4 mps 730 mmHg 80%
    19:00 +8°C° 0.6 mm 4 mps 730 mmHg 86%
    20:00 +8°C° 0.1 mm 4 mps 731 mmHg 86%
    21:00 +9°C° 0.1 mm 3 mps 731 mmHg 86%
    22:00 +9°C° 0.1 mm 2 mps 732 mmHg 86%
    23:00 +8°C° 0.2 mm 2 mps 732 mmHg 87%

    29 March, Friday

    Time Temperature Precipitation Wind Pressure Humidity
    00:00 +8°C° 0.2 mm 2 mps 732 mmHg 87%
    01:00 +9°C° 0.2 mm 1 mps 732 mmHg 88%
    02:00 +9°C° 0.2 mm 1 mps 732 mmHg 87%
    03:00 +9°C° 0.2 mm 1 mps 732 mmHg 86%
    04:00 +9°C° 0.2 mm 1 mps 732 mmHg 85%
    05:00 +9°C° 0 mm 1 mps 732 mmHg 83%
    06:00 +10°C° 0 mm 1 mps 732 mmHg 82%
    07:00 +10°C° 0 mm 1 mps 732 mmHg 80%
    08:00 +12°C° 0 mm 1 mps 733 mmHg 72%
    09:00 +14°C° 0 mm 1 mps 733 mmHg 63%
    10:00 +16°C° 0 mm 1 mps 733 mmHg 55%
    11:00 +16°C° 0.1 mm 2 mps 733 mmHg 54%
    12:00 +16°C° 0.1 mm 2 mps 733 mmHg 53%
    13:00 +16°C° 0.1 mm 2 mps 733 mmHg 53%
    14:00 +15°C° 0.2 mm 2 mps 732 mmHg 56%
    15:00 +15°C° 0.2 mm 2 mps 732 mmHg 59%
    16:00 +14°C° 0.2 mm 2 mps 732 mmHg 62%
    17:00 +13°C° 0.4 mm 2 mps 732 mmHg 69%
    18:00 +11°C° 0.4 mm 1 mps 732 mmHg 76%
    19:00 +10°C° 0.4 mm 1 mps 732 mmHg 84%
    20:00 +10°C° 0.1 mm 1 mps 732 mmHg 85%
    21:00 +9°C° 0.1 mm 1 mps 732 mmHg 86%
    22:00 +9°C° 0.1 mm 1 mps 733 mmHg 87%
    23:00 +8°C° 0 mm 1 mps 732 mmHg 88%
    Show more